CW1852 Weather Reports


Display with metric or nautical units.
time (UTC)temp
F
wind
direction
speed
MPH
gust
MPH
rain 1hr
in
rain 24hr
in
rain mn
in
humidity
%
barometer
mb
20260903162203 63 184 0.0 4.0 0.01 0.09 0.09 97 1013.3
20260903161202 62 189 0.0 2.0 0.01 0.09 0.09 96 1013.4
20260903160203 62 189 0.0 2.0 0.01 0.09 0.09 96 1013.7
20260903155203 62 189 1.0 2.0 0.00 0.08 0.08 96 1014.0
20260903154203 62 189 0.0 2.0 0.00 0.08 0.08 96 1014.1
20260903153203 62 189 0.0 3.0 0.00 0.08 0.08 96 1014.2
20260903152223 62 189 1.0 2.0 0.00 0.08 0.08 96 1014.5
20260903151203 62 189 1.0 2.0 0.00 0.08 0.08 96 1014.5
20260903150203 62 189 1.0 3.0 0.00 0.08 0.08 96 1014.6
20260903145224 62 189 1.0 3.0 0.00 0.08 0.08 96 1014.6
20260903144203 62 189 0.0 3.0 0.00 0.08 0.08 96 1014.5
20260903143223 62 189 1.0 3.0 0.00 0.08 0.08 96 1014.6
20260903142203 62 191 1.0 4.0 0.00 0.08 0.08 96 1014.8
20260903141202 62 192 1.0 2.0 0.00 0.08 0.08 96 1014.9
20260903140203 62 191 2.0 3.0 0.00 0.08 0.08 96 1014.9
20260903135203 62 190 1.0 3.0 0.02 0.07 0.07 96 1014.9
20260903134202 62 190 1.0 3.0 0.02 0.07 0.07 96 1015.0
20260903133204 61 190 0.0 6.0 0.02 0.07 0.07 96 1015.1
20260903132202 61 165 2.0 7.0 0.01 0.06 0.06 96 1015.3
20260903131203 61 201 2.0 5.0 0.00 0.05 0.05 96 1015.4
20260903130202 61 209 2.0 7.0 0.00 0.05 0.05 96 1015.2
20260903125203 62 178 4.0 9.0 0.01 0.05 0.05 96 1015.2
20260903124202 62 207 2.0 10.0 0.01 0.05 0.05 96 1014.8
20260903123203 62 179 3.0 7.0 0.01 0.05 0.05 96 1014.8
20260903122225 62 177 1.0 5.0 0.01 0.05 0.05 96 1014.8
20260903121202 62 176 2.0 5.0 0.01 0.05 0.05 96 1015.0
20260903120203 62 176 1.0 6.0 0.00 0.04 0.04 96 1015.0
20260903115224 62 172 2.0 9.0 0.04 0.04 0.04 96 1015.3
20260903114202 62 191 0.0 6.0 0.04 0.04 0.04 96 1015.3
20260903113203 62 175 0.0 2.0 0.04 0.04 0.04 96 1015.4
20260903112203 62 175 1.0 2.0 0.03 0.03 0.03 96 1015.3
20260903111203 62 175 0.0 2.0 0.01 0.01 0.01 96 1015.4
20260903110202 62 175 0.0 2.0 0.00 0.00 0.00 96 1015.4
20260903105203 62 175 0.0 2.0 0.00 0.00 0.00 96 1015.5
20260903104202 62 175 0.0 3.0 0.00 0.00 0.00 96 1015.6
20260903103203 62 175 1.0 2.0 0.00 0.00 0.00 96 1015.8
20260903102203 62 175 0.0 1.0 0.00 0.00 0.00 96 1015.6
20260903101202 62 175 0.0 1.0 0.00 0.00 0.00 96 1015.6
20260903100203 62 175 0.0 1.0 0.00 0.00 0.00 95 1015.6
20260903095224 62 175 0.0 1.0 0.00 0.00 0.00 96 1015.7
20260903094203 61 175 0.0 2.0 0.00 0.00 0.00 95 1015.4
20260903093203 61 175 0.0 0.0 0.00 0.00 0.00 95 1015.3
20260903092202 61 175 0.0 0.0 0.00 0.00 0.00 95 1015.4
20260903090223 61 175 0.0 0.0 0.00 0.00 0.00 95 1015.5
20260903085203 61 175 0.0 3.0 0.00 0.00 0.00 95 1015.6
20260903084224 62 175 0.0 2.0 0.00 0.00 0.00 95 1015.6
20260903083203 61 175 0.0 2.0 0.00 0.00 0.00 95 1015.6
20260903082203 61 175 0.0 1.0 0.00 0.00 0.00 95 1015.9
20260903081224 61 175 0.0 1.0 0.00 0.00 0.00 95 1016.1
20260903080202 61 175 0.0 1.0 0.00 0.00 0.00 95 1016.1
20260903075203 61 175 0.0 3.0 0.00 0.00 0.00 94 1016.2
20260903074202 61 175 0.0 5.0 0.00 0.00 0.00 94 1016.2
20260903073203 61 178 1.0 4.0 0.00 0.00 0.00 94 1016.5
20260903072224 61 178 0.0 5.0 0.00 0.00 0.00 95 1016.5
20260903071202 61 177 1.0 4.0 0.00 0.00 0.00 95 1016.7
20260903070203 61 177 0.0 0.0 0.00 0.00 0.00 95 1017.0
20260903065224 61 177 0.0 0.0 0.00 0.00 0.00 95 1017.2
20260903064203 61 177 0.0 3.0 0.00 0.00 0.00 94 1017.3
20260903063203 61 177 0.0 6.0 0.00 0.00 0.00 95 1017.3
20260903062203 61 53 0.0 2.0 0.00 0.00 0.00 95 1017.5
20260903061202 61 53 0.0 1.0 0.00 0.00 0.00 95 1017.5
20260903060203 61 53 1.0 3.0 0.00 0.00 0.00 95 1017.5
20260903055224 61 53 0.0 2.0 0.00 0.00 0.00 95 1017.6
20260903054203 61 53 0.0 2.0 0.00 0.00 0.00 95 1017.6
20260903053203 61 53 0.0 2.0 0.00 0.00 0.00 95 1017.7
20260903052224 61 53 0.0 2.0 0.00 0.00 0.00 95 1017.9
20260903051203 61 53 0.0 2.0 0.00 0.00 0.00 95 1018.1
20260903050203 61 53 1.0 3.0 0.00 0.00 0.00 95 1018.3
20260903045202 60 53 1.0 3.0 0.00 0.00 0.00 95 1018.6
20260903044203 60 53 1.0 3.0 0.00 0.00 0.00 95 1018.7
20260903043202 60 53 0.0 1.0 0.00 0.00 0.00 95 1018.7
20260903042203 60 53 1.0 2.0 0.00 0.00 0.00 95 1018.6
20260903041202 60 53 1.0 3.0 0.00 0.00 0.00 95 1018.8
20260903040203 60 53 0.0 3.0 0.00 0.00 0.00 95 1018.7
20260903035225 60 53 1.0 3.0 0.00 0.00 0.00 95 1018.8
20260903034202 60 53 0.0 3.0 0.00 0.00 0.00 95 1018.9
20260903033203 60 53 1.0 4.0 0.00 0.00 0.00 95 1018.9
20260903032203 60 53 0.0 2.0 0.00 0.00 0.00 95 1018.9
20260903031223 60 53 0.0 1.0 0.00 0.00 0.00 95 1018.9
20260903030224 60 53 0.0 2.0 0.00 0.00 0.00 94 1019.0
20260903025224 60 53 0.0 1.0 0.00 0.00 0.00 94 1019.1
20260903024224 60 53 0.0 1.0 0.00 0.00 0.00 94 1019.4
20260903023202 60 53 1.0 2.0 0.00 0.00 0.00 94 1019.4
20260903022203 60 53 0.0 3.0 0.00 0.00 0.00 94 1019.3
20260903021202 60 53 0.0 3.0 0.00 0.00 0.00 94 1019.4
20260903020203 60 53 1.0 2.0 0.00 0.00 0.00 93 1019.3
20260903015203 60 53 0.0 1.0 0.00 0.00 0.00 93 1019.2
20260903014202 60 53 0.0 2.0 0.00 0.00 0.00 93 1019.3
20260903013203 60 53 0.0 3.0 0.00 0.00 0.00 93 1019.3
20260903012203 60 53 0.0 4.0 0.00 0.00 0.00 93 1019.1
20260903011203 60 52 1.0 4.0 0.00 0.00 0.00 93 1019.1
20260903010203 60 53 0.0 2.0 0.00 0.00 0.00 93 1019.3
20260903005203 60 53 0.0 3.0 0.00 0.00 0.00 93 1019.3
20260903004224 60 53 1.0 3.0 0.00 0.00 0.00 92 1019.5
20260903003203 60 53 1.0 4.0 0.00 0.00 0.00 92 1019.5
20260903002203 60 53 0.0 3.0 0.00 0.00 0.00 92 1019.6
20260903001203 61 53 0.0 1.0 0.00 0.00 0.00 92 1019.9
20260903000204 61 53 0.0 4.0 0.00 0.00 0.00 92 1019.8
20260902235204 61 52 0.0 4.0 0.00 0.00 0.00 92 1019.9
20260902234203 61 53 0.0 2.0 0.00 0.00 0.00 92 1019.7
20260902233203 61 53 0.0 2.0 0.00 0.00 0.00 92 1019.7
20260902232203 61 53 0.0 4.0 0.00 0.00 0.00 92 1019.8
20260902231203 61 53 2.0 4.0 0.00 0.00 0.00 92 1019.9
20260902230203 61 52 1.0 5.0 0.00 0.00 0.00 92 1020.0
20260902225202 61 52 0.0 5.0 0.00 0.00 0.00 91 1020.2
20260902224203 61 52 0.0 2.0 0.00 0.00 0.00 91 1020.4
20260902223224 61 52 0.0 3.0 0.00 0.00 0.00 91 1020.4
20260902222202 61 52 0.0 3.0 0.00 0.00 0.00 90 1020.4
20260902221203 61 52 1.0 5.0 0.00 0.00 0.00 90 1020.4
20260902220202 61 50 0.0 3.0 0.00 0.00 0.00 88 1020.4
20260902215203 62 50 0.0 2.0 0.00 0.00 0.00 89 1020.4
20260902214202 62 50 1.0 2.0 0.00 0.00 0.00 88 1020.5
20260902213203 63 50 0.0 4.0 0.00 0.00 0.00 87 1020.6
20260902212203 62 50 0.0 2.0 0.00 0.00 0.00 87 1020.6
20260902211202 62 50 1.0 3.0 0.00 0.00 0.00 86 1020.6
20260902210203 62 50 0.0 4.0 0.00 0.00 0.00 88 1020.8
20260902205202 62 48 2.0 5.0 0.00 0.00 0.00 86 1020.9
20260902204203 64 58 1.0 4.0 0.00 0.00 0.00 83 1020.7
20260902203203 65 58 1.0 3.0 0.00 0.00 0.00 83 1020.8
20260902202203 62 57 1.0 8.0 0.00 0.00 0.00 87 1021.1
20260902195203 63 49 1.0 4.0 0.00 0.00 0.00 84 1021.3
20260902194203 64 48 1.0 5.0 0.00 0.00 0.00 84 1021.4
20260902193203 65 48 1.0 3.0 0.00 0.00 0.00 82 1021.5
20260902192202 65 47 1.0 3.0 0.00 0.00 0.00 82 1021.5
20260902190202 66 47 2.0 4.0 0.00 0.00 0.00 80 1021.3
20260902185224 66 47 1.0 3.0 0.00 0.00 0.00 80 1021.4
20260902184203 66 47 1.0 3.0 0.00 0.00 0.00 80 1021.3
20260902183203 65 47 1.0 3.0 0.00 0.00 0.00 83 1021.4
20260902182203 64 51 1.0 5.0 0.00 0.00 0.00 83 1021.5
20260902181203 65 54 1.0 4.0 0.00 0.00 0.00 81 1021.4
20260902180223 66 51 2.0 6.0 0.00 0.00 0.00 79 1021.5
20260902175203 66 87 2.0 7.0 0.00 0.00 0.00 80 1021.6
20260902174203 66 342 2.0 8.0 0.00 0.00 0.00 79 1021.5
20260902173203 66 48 3.0 10.0 0.00 0.00 0.00 77 1021.3
20260902172203 66 58 2.0 7.0 0.00 0.00 0.00 78 1021.5
20260902171202 67 68 1.0 5.0 0.00 0.00 0.00 76 1021.7
20260902170224 69 85 1.0 5.0 0.00 0.00 0.00 72 1021.6
20260902165203 69 151 2.0 6.0 0.00 0.00 0.00 73 1021.8
20260902164202 69 127 2.0 8.0 0.00 0.00 0.00 72 1021.7
20260902163203 68 37 1.0 9.0 0.00 0.00 0.00 72 1021.9